SCP
0 0 0 0 0 0 0 0 0 0 0 0 0 0 0 0 0 0 0 0 0 0 0 0 0 0 0 0 0 0 0 0 0 0 0 0 0 0 0 0 0 0 0
0 0 0 0 0 0 0 0 0 0 0 0 0 0 0 0 0 0 0 0 0 0 0 0 0 0 0 0 0 0 0 0 0 0 0 0 0 0 0 0 0 0 0
0 0 0 0 0 0 0 0 0 0 0 0 0 0 0 0 0 0 0 0 0 0 0 0 0 0 0 0 0 0 0 0 0 0 0 0 0 0 0 0 0 0 0
0 0 0 0 0 0 0 0 0 0 0 0 0 0 0 0 0 0 0 0 0 0 0 0 0 0 0 0 0 0 0 0 0 0 0 0 0 0 0 0 0 0 0
0 0 0 0 0 0 0 0 0 0 0 0 0 0 0 0 0 0 0 0 0 0 0 0 0 0 0 0 0 0 0 0 0 0 0 0 0 0 0 0 0 0 0
0 0 0 0 0 0 0 0 0 0 0 0 0 0 0 0 0 0 0 0 0 0 0 0 0 0 0 0 0 0 0 0 0 0 0 0 0 0 0 0 0 0 0
0 0 0 0 0 0 0 0 0 0 0 0 0 0 0 0 0 0 0 0 0 0 0 0 0 0 0 0 0 0 0 0 0 0 0 0 0 0 0 0 0 0 0
0 0 0 0 0 0 0 0 0 0 0 0 0 0 0 0 0 0 0 0 0 0 0 0 0 0 0 0 0 0 0 0 0 0 0 0 0 0 0 0 0 0 0
0 0 0 0 0 0 0 0 0 0 0 0 0 0 0 0 0 0 0 0 0 0 0 0 0 0 0 0 0 0 0 0 0 0 0 0 0 0 0 0 0 0 0
0 0 0 0 0 0 0 0 0 0 0 0 0 0 0 0 0 0 0 0 0 0 0 0 0 0 0 0 0 0 0 0 0 0 0 0 0 0 0 0 0 0 0
0 0 0 0 0 0 0 0 0 0 0 0 0 0 0 0 0 0 0 0 0 0 0 0 0 0 0 0 0 0 0 0 0 0 0 0 0 0 0 0 0 0 0
0 0 0 0 0 0 0 0 0 0 0 0 0 0 0 0 0 0 0 0 0 0 0 0 0 0 0 0 0 0 0 0 0 0 0 0 0 0 0 0 0 0 0
0 0 0 0 0 0 0 0 0 0 0 0 0 0 0 0 0 0 0 0 0 0 0 0 0 0 0 0 0 0 0 0 0 0 0 0 0 0 0 0 0 0 0
0 0 0 0 0 0 0 0 0 0 0 0 0 0 0 0 0 0 0 0 0 0 0 0 0 0 0 0 0 0 0 0 0 0 0 0 0 0 0 0 0 0 0
0 0 0 0 0 0 0 0 0 0 0 0 0 0 0 0 0 0 0 0 0 0 0 0 0 0 0 0 0 0 0 0 0 0 0 0 0 0 0 0 0 0 0
0 0 0 0 0 0 0 0 0 0 0 0 0 0 0 0 0 0 0 0 0 0 0 0 0 0 -0 0 0 0 0 0 0 0 0 0 0 0 0 0 0 0 0
0 0 0 0 0 0 0 0 0 0 0 0 0 0 0 0 0 0 0 0 0 0 0 0 0 0 0 0 0 0 0 0 0 0 0 0 0 0 0 0 0 0 0
0 0 0 0 0 0 0 0 0 0 0 0 0 0 0 0 0 0 0 0 0 0 0 0 0 0 0 0 0 0 0 0 0 0 0 0 0 0 0 0 0 0 0
0 0 0 0 0 0 0 0 0 0 0 0 0 0 0 0 0 0 0 0 0 0 0 0 0 0 0 0 0 0 0 0 0 0 0 0 0 0 0 0 0 0 0
0 0 0 0 0 0 0 0 0 0 0 0 0 0 0 0 0 0 0 0 0 0 0 0 0 0 0 0 0 0 0 0 0 0 0 0 0 0 0 0 0 0 0
0 0 0 0 0 0 0 0 0 0 0 0 0 0 0 0 0 0 0 0 0 0 0 0 0 0 0 0 0 0 0 0 0 0 0 0 0 0 0 0 0 0 0
0 0 0 0 0 0 0 0 0 0 0 0 0 0 0 0 0 0 0 0 0 0 0 0 0 0 0 0 0 0 0 0 0 0 0 0 0 0 0 0 0 0 0
0 0 0 0 0 0 0 0 0 0 0 0 0 0 0 0 0 0 0 0 0 0 0 0 0 0 0 0 0 0 0 0 0 0 0 0 0 0 0 0 0 0 0
0 0 0 0 0 0 0 0 0 0 0 0 0 0 0 0 0 0 0 0 0 0 0 0 0 0 0 0 0 0 0 0 0 0 0 0 0 0 0 0 0 0 0
0 0 0 0 0 0 0 0 0 0 0 0 0 0 0 0 0 0 0 0 0 0 0 0 0 0 0 0 0 0 0 0 0 0 0 0 0 0 0 0 0 0 0
0 0 0 0 0 0 0 0 0 0 0 0 0 0 0 0 0 0 0 0 0 0 0 0 0 0 0 0 0 0 0 0 0 0 0 0 0 0 0 0 0 0 0
Wind_Speed
2 2 2 2 2 2 2 1 1 2 2 2 2 3 2 2 1 1 1 2 2 1 0 1 1 1 2 2 2 1 2 2 2 1 1 1 1 2 2 3 4 4 5
1 1 2 2 2 2 1 1 1 2 1 2 2 2 2 2 1 1 1 1 2 2 2 1 1 1 1 2 1 1 1 2 1 1 0 1 1 2 2 3 4 4 4
2 2 2 2 2 1 1 1 2 2 2 2 2 1 1 2 2 2 1 1 1 2 2 2 2 1 1 0 1 1 1 1 1 1 1 1 2 2 3 3 4 4 5
2 2 1 1 1 1 1 1 1 2 2 2 1 1 1 1 1 1 1 1 1 1 2 3 2 2 2 1 1 0 1 1 0 0 2 2 3 3 3 4 4 5 5
2 2 1 1 1 1 2 1 1 1 1 1 1 1 1 1 1 1 2 1 1 1 1 2 3 3 2 2 2 1 1 0 1 1 2 3 3 4 4 5 5 5 6
2 2 1 2 2 1 2 2 1 2 1 1 1 1 1 1 1 1 1 0 1 1 1 1 1 2 3 3 3 3 2 2 2 2 3 3 4 4 4 5 5 5 6
2 2 1 1 1 1 1 1 1 1 1 1 1 1 1 1 1 1 0 0 0 0 1 1 1 1 1 2 3 3 3 4 3 4 4 4 4 4 5 5 5 5 6
2 1 2 1 1 1 2 1 1 1 1 1 1 1 0 1 0 0 0 1 1 0 0 1 1 0 0 0 2 3 3 4 5 5 5 5 5 5 6 6 6 6 6
1 1 1 1 1 0 0 0 1 1 0 0 1 1 2 2 1 1 0 0 1 1 0 0 1 1 0 0 1 3 4 5 6 6 6 5 6 6 6 6 6 6 7
1 1 1 0 0 0 0 0 0 1 1 1 0 0 0 1 2 0 1 1 0 0 1 1 1 1 0 1 2 3 4 5 6 6 6 6 6 7 7 7 8 7 8
2 1 1 0 0 0 1 1 0 1 1 1 1 1 1 1 1 1 1 1 1 1 1 1 1 1 0 1 2 3 4 4 5 6 6 7 7 8 8 8 8 8 8
1 2 1 1 1 1 1 1 1 1 1 1 1 1 1 1 1 1 2 1 1 2 1 1 1 1 1 1 2 4 4 4 4 5 6 7 8 8 8 9 9 9 9
2 2 2 2 2 2 2 1 1 2 2 2 2 2 2 2 1 1 1 1 1 1 1 1 1 1 0 1 2 4 4 4 4 5 6 7 7 7 8 8 9 9 10
2 2 2 2 2 2 2 1 1 2 1 2 2 2 1 1 1 2 2 2 1 1 1 2 1 1 1 1 2 3 2 5 5 5 6 6 7 7 7 8 8 9 9
2 2 2 2 2 2 2 1 1 2 1 2 2 2 2 1 1 1 1 2 2 2 3 2 1 1 1 1 2 1 1 4 5 5 6 6 7 7 7 7 8 8 8
3 2 2 2 2 2 2 2 1 2 2 2 2 2 2 2 1 1 2 2 2 3 3 2 2 1 1 1 3 1 2 4 5 5 6 6 6 7 7 7 8 9 8
2 3 3 3 2 2 2 2 2 2 2 2 2 2 3 2 2 2 2 2 2 2 3 3 1 1 1 1 2 1 1 2 2 5 6 7 7 7 7 7 8 9 9
3 3 2 3 3 3 2 3 3 3 3 3 3 3 3 2 3 2 2 3 3 3 3 4 2 1 2 1 1 1 2 2 2 5 6 6 7 7 7 8 8 8 8
2 2 2 2 2 2 2 3 3 3 3 3 3 3 3 3 3 2 3 3 2 2 2 3 2 1 1 1 1 1 1 2 3 4 5 6 6 7 7 8 8 9 8
2 2 2 2 2 2 3 3 2 3 3 2 2 2 3 3 4 3 3 3 3 3 2 2 2 2 1 1 1 1 2 1 2 3 4 4 6 7 8 8 9 9 9
2 2 2 2 2 2 2 2 2 2 2 2 2 2 3 4 4 4 3 3 3 3 2 2 2 2 2 1 1 1 2 2 2 2 2 2 3 3 4 6 8 8 8
2 1 1 2 2 2 2 3 2 2 2 2 2 2 3 3 4 5 5 5 5 4 4 3 3 3 3 2 2 1 2 2 3 1 2 4 2 3 3 3 7 9 9
2 2 2 2 2 3 3 3 2 1 1 2 2 2 2 2 3 2 3 4 4 5 5 4 4 4 4 3 2 2 3 3 3 2 2 4 2 4 4 5 9 9 9
1 1 2 2 2 3 4 3 2 1 1 1 2 2 2 2 3 3 3 2 3 3 4 3 4 4 4 4 4 3 3 3 3 2 2 3 3 3 4 4 7 8 8
1 1 1 1 2 3 4 4 2 1 1 2 2 2 2 3 4 4 3 3 3 3 4 4 4 4 4 4 2 1 1 1 3 3 1 2 2 3 3 3 4 7 8
1 1 2 2 2 3 4 4 2 1 1 1 2 2 3 3 4 4 3 3 4 3 2 2 2 2 1 2 3 2 2 2 3 3 1 1 2 2 3 2 2 3 4
Wind_Direction
26 29 28 26 32 36 48 59 77 82 79 91 94 106 105 105 94 79 32 50 47 15 285 189 181 174 158 158 156 154 158 152 142 121 111 48 14 25 12 356 356 355 356
53 46 46 33 25 30 37 65 98 95 79 89 90 104 114 114 93 80 58 35 36 25 1 351 333 283 201 174 161 171 170 168 151 125 57 341 338 349 345 342 348 350 350
64 63 55 39 16 23 40 64 64 88 89 79 73 86 104 97 92 84 74 57 19 6 358 358 344 336 340 202 212 212 165 138 119 71 328 323 319 322 324 335 338 337 338
56 63 55 32 12 34 55 72 81 85 91 96 78 44 66 106 98 87 83 74 62 26 355 12 352 354 19 36 38 89 108 120 133 313 309 308 311 312 317 320 321 321 322
49 61 54 30 31 49 52 52 64 87 108 107 111 75 54 80 103 90 85 80 84 67 8 8 11 6 7 9 5 347 314 278 268 300 302 297 299 300 303 304 305 312 317
47 56 57 35 42 57 50 54 60 53 93 120 107 81 58 97 101 105 116 84 93 110 77 42 17 356 3 353 347 321 308 300 292 296 301 293 293 296 298 299 306 312 315
44 53 47 45 44 66 62 61 68 58 37 41 97 55 6 80 119 140 149 148 144 189 124 97 63 34 345 355 341 320 304 297 294 294 297 296 294 295 296 297 306 309 311
26 41 50 45 39 58 55 55 61 76 24 47 122 127 273 300 275 146 133 157 208 141 113 107 104 77 335 318 318 325 309 299 295 292 293 299 298 292 292 297 300 301 305
8 18 32 40 30 95 134 94 95 141 208 341 78 147 162 212 282 312 244 193 213 164 193 201 148 193 257 284 287 305 318 306 296 295 297 296 293 292 294 297 299 302 304
335 334 352 10 5 345 255 243 176 205 185 219 232 25 128 152 152 258 306 308 316 237 241 225 195 180 226 263 297 312 318 309 300 299 303 299 295 294 294 299 299 300 303
327 315 295 283 274 256 242 248 234 213 208 211 203 159 131 38 96 155 239 287 317 286 270 229 207 183 196 285 280 303 318 310 308 307 305 301 297 294 296 299 304 303 302
321 312 300 277 260 254 251 242 229 217 220 216 220 183 158 161 172 168 208 231 266 287 296 252 222 217 208 242 286 313 312 311 308 308 308 305 300 298 300 301 302 305 303
303 298 295 275 266 256 249 233 221 232 224 213 219 225 206 201 176 167 177 215 251 291 298 281 240 217 228 254 273 315 304 307 309 310 307 305 304 306 305 303 301 301 302
271 283 283 274 269 266 262 238 229 236 231 223 227 229 228 217 195 189 175 174 235 272 261 259 261 217 245 253 292 328 295 311 305 304 302 301 301 301 300 301 301 299 299
279 278 272 268 271 261 251 240 235 236 232 234 230 226 228 233 216 212 196 188 184 235 254 239 246 255 267 264 300 296 291 306 310 308 305 303 301 299 298 300 304 300 300
281 280 279 268 267 264 250 231 238 231 228 244 232 221 229 226 223 212 201 211 206 209 247 243 232 248 257 293 319 319 279 315 316 309 307 306 305 303 300 302 302 298 297
283 275 272 267 263 260 254 239 242 229 226 243 243 231 238 228 224 222 206 207 213 207 241 271 262 277 251 260 308 300 283 277 289 308 309 308 308 304 300 302 304 303 300
287 279 275 273 267 260 247 235 238 235 224 229 238 234 240 228 228 225 208 211 220 213 216 255 271 280 264 248 260 287 312 312 296 304 307 306 305 305 305 304 308 309 306
298 296 285 273 273 268 257 247 237 238 232 227 231 230 232 222 225 228 218 213 220 222 208 219 255 269 276 290 297 292 294 293 302 305 307 302 305 307 306 306 306 306 306
297 295 289 280 273 270 266 258 247 246 244 238 229 229 230 224 223 222 226 220 212 213 214 214 237 255 263 269 253 271 300 290 298 303 309 310 310 311 310 307 305 305 303
298 288 288 292 290 276 270 257 244 236 235 243 245 239 237 232 230 228 232 222 211 209 215 220 233 247 248 250 260 274 285 300 291 278 299 300 301 295 298 299 303 302 299
305 305 296 298 299 293 291 278 253 227 230 232 241 248 247 246 251 255 263 254 232 218 216 218 231 231 242 241 264 266 284 299 294 287 301 294 286 284 286 280 296 302 301
310 316 312 313 306 295 298 296 289 257 238 240 238 241 257 262 263 247 270 275 270 265 249 230 228 233 234 226 229 246 252 269 273 270 288 284 281 278 282 288 298 300 303
300 304 307 316 317 309 313 315 304 314 285 265 253 240 245 264 257 237 226 242 253 259 258 243 225 231 238 229 222 237 251 282 277 270 254 273 286 281 291 288 298 305 311
319 311 306 307 310 307 312 315 322 306 297 287 271 255 249 253 260 252 232 236 255 265 275 271 266 257 259 267 264 218 239 278 289 279 243 255 282 298 292 282 295 309 314
310 321 321 317 303 299 308 311 319 294 295 298 292 279 268 258 264 260 233 226 244 255 251 280 300 305 274 271 281 230 215 244 278 279 235 254 278 314 306 285 284 304 307